Weather History for Roswell, NM

Change the Weather History Date:

Saturday, March 23, 2013

  Actual Average Record
Temperature  
Mean Temperature 53 °F 54 °F  
Max Temperature 76 °F 70 °F 88 °F (1998)
Min Temperature 30 °F 38 °F 14 °F (1898)
Degree Days  
Heating Degree Days 12 11  
Month to date heating degree days 231 310  
Since 1 July heating degree days 2685 3017  
Cooling Degree Days 0 0  
Month to date cooling degree days 2 0  
Year to date cooling degree days 2 0  
Growing Degree Days 4 (Base 50)    
Moisture  
Dew Point 0 °F    
Average Humidity 36    
Maximum Humidity 70    
Minimum Humidity 2    
Precipitation  
Precipitation 0.00 in 0.02 in 0.85 in (2007)
Month to date precipitation T 0.38  
Year to date precipitation 0.44 1.18  
Sea Level Pressure  
Sea Level Pressure 29.70 in    
Wind  
Wind Speed 20 mph (NW)    
Max Wind Speed 40 mph    
Max Gust Speed 51 mph    
Visibility 6 miles    
Events      
T = Trace of Precipitation, MM = Missing Value Source: NWS Daily Summary

Daily Weather History Graph

Daily Weather History Graph

Search for Another Location

Airport:

Trip Planner

Search our weather history database for the weather conditions in past years. The results will help you decide how hot, cold, wet, or windy it might be!

Date:

Astronomy

Mar. 23, 2013 Rise Set
Actual Time 6:57 AM MDT 7:12 PM MDT
Civil Twilight 6:32 AM MDT 7:36 PM MDT
Nautical Twilight 6:03 AM MDT 8:05 PM MDT
Astronomical Twilight 5:34 AM MDT 8:35 PM MDT
Moon 3:50 PM MDT (3/23) 4:25 AM MDT (3/23)
Length of Visible Light 13h 04m
Length of Day
12h 14m
Waxing Gibbous, 85% of the Moon is Illuminated
Mar 23
Waxing Gibbous
Mar 27
Full
Apr 2
Last Quarter
Apr 10
New
Apr 18
First Quarter

Hourly Weather History & Observations

Time (MDT) Temp. Windchill Dew Point Humidity Pressure Visibility Wind Dir Wind Speed Gust Speed Precip Events Conditions
12:51 AM 52.0 °F - 37.0 °F 57% 29.66 in 10.0 mi North 3.5 mph - N/A   Clear
1:51 AM 48.0 °F - 34.0 °F 58% 29.66 in 10.0 mi Calm Calm - N/A   Clear
2:51 AM 46.0 °F 43.9 °F 32.0 °F 58% 29.64 in 10.0 mi WNW 4.6 mph - N/A   Clear
3:51 AM 39.9 °F - 28.0 °F 63% 29.64 in 10.0 mi Calm Calm - N/A   Clear
4:51 AM 39.9 °F 36.7 °F 28.0 °F 63% 29.62 in 10.0 mi WSW 4.6 mph - N/A   Clear
5:51 AM 39.0 °F 34.8 °F 28.0 °F 65% 29.63 in 10.0 mi South 5.8 mph - N/A   Clear
6:51 AM 43.0 °F 38.8 °F 33.1 °F 68% 29.63 in 10.0 mi Variable 6.9 mph - N/A   Clear
7:51 AM 45.0 °F 43.5 °F 33.1 °F 63% 29.66 in 10.0 mi South 3.5 mph - N/A   Clear
8:51 AM 55.9 °F - 34.0 °F 44% 29.66 in 10.0 mi South 9.2 mph - N/A   Clear
9:51 AM 66.0 °F - 23.0 °F 20% 29.62 in 10.0 mi NW 8.1 mph - N/A   Clear
10:51 AM 70.0 °F - 15.1 °F 12% 29.59 in 10.0 mi West 13.8 mph 25.3 mph N/A   Clear
11:51 AM 72.0 °F - 3.9 °F 7% 29.58 in 10.0 mi WNW 18.4 mph 26.5 mph N/A   Clear
12:51 PM 73.0 °F - 5.0 °F 7% 29.57 in 10.0 mi West 18.4 mph 27.6 mph N/A   Clear
1:51 PM 75.0 °F - -5.1 °F 4% 29.53 in 10.0 mi West 19.6 mph 27.6 mph N/A   Clear
2:51 PM 75.0 °F - -15.0 °F 4% 29.49 in 5.0 mi WNW 28.8 mph 41.4 mph N/A   Haze
3:14 PM 73.4 °F - -16.6 °F 4% 29.62 in 4.0 mi WNW 25.3 mph 47.2 mph N/A   Haze
3:26 PM 75.2 °F - -14.8 °F 4% 29.62 in 2.0 mi WNW 33.4 mph 43.7 mph N/A   Haze
3:40 PM 73.4 °F - -14.8 °F 4% 29.63 in 1.5 mi WNW 29.9 mph 49.5 mph N/A   Haze
3:46 PM 73.4 °F - -14.8 °F 4% 29.63 in 3.0 mi West 34.5 mph 43.7 mph N/A   Haze
3:51 PM 75.0 °F - -15.0 °F 4% 29.50 in 3.0 mi WNW 40.3 mph 47.2 mph N/A   Haze
3:59 PM 73.4 °F - -16.6 °F 4% 29.64 in 2.5 mi WNW 34.5 mph 47.2 mph N/A   Haze
4:08 PM 73.4 °F - -18.4 °F 4% 29.63 in 3.0 mi WNW 31.1 mph 43.7 mph N/A   Haze
4:14 PM 73.4 °F - -20.2 °F 4% 29.63 in 1.8 mi WNW 35.7 mph 50.6 mph N/A   Haze
4:40 PM 71.6 °F - -23.8 °F 4% 29.66 in 0.8 mi WNW 33.4 mph 47.2 mph N/A   Haze
4:51 PM 71.1 °F - -24.0 °F 4% 29.55 in 0.5 mi WNW 35.7 mph 48.3 mph N/A   Haze
5:03 PM 69.8 °F - -23.8 °F 4% 29.67 in 1.2 mi WNW 34.5 mph 43.7 mph N/A   Haze
5:10 PM 69.8 °F - -16.6 °F 4% 29.68 in 1.8 mi NW 27.6 mph 43.7 mph N/A   Haze
5:15 PM 68.0 °F - -16.6 °F 4% 29.68 in 3.0 mi WNW 25.3 mph 41.4 mph N/A   Haze
5:28 PM 68.0 °F - -14.8 °F 4% 29.70 in 2.5 mi NW 23.0 mph 38.0 mph N/A   Haze
5:43 PM 66.2 °F - -16.6 °F 4% 29.72 in 1.5 mi WNW 31.1 mph 46.0 mph N/A   Haze
5:51 PM 66.9 °F - -17.0 °F 4% 29.64 in 2.0 mi WNW 34.5 mph 49.5 mph N/A   Haze
6:00 PM 66.2 °F - -16.6 °F 4% 29.74 in 1.2 mi WNW 32.2 mph 49.5 mph N/A   Haze
6:17 PM 64.4 °F - -13.0 °F 4% 29.76 in 2.0 mi NW 24.2 mph 48.3 mph N/A   Haze
6:27 PM 62.6 °F - -11.2 °F 5% 29.77 in 4.0 mi NNW 31.1 mph 42.6 mph N/A   Haze
6:51 PM 55.9 °F - -5.1 °F 8% 29.73 in 4.0 mi North 31.1 mph 38.0 mph N/A   Haze
7:51 PM 50.0 °F - -14.1 °F 7% 29.82 in 6.0 mi North 32.2 mph 41.4 mph N/A   Haze
8:51 PM 46.9 °F - -15.0 °F 7% 29.87 in 6.0 mi North 32.2 mph 42.6 mph N/A   Haze
9:03 PM 46.4 °F 37.7 °F -14.8 °F 7% 29.96 in 8.0 mi North 26.5 mph 38.0 mph N/A   Widespread Dust
9:40 PM 37.4 °F 24.8 °F 8.6 °F 30% 30.02 in 5.0 mi NNE 31.1 mph 38.0 mph N/A   Haze
9:51 PM 37.0 °F 24.7 °F 9.0 °F 31% 29.96 in 6.0 mi NNE 28.8 mph 39.1 mph N/A   Haze
10:13 PM 35.6 °F 23.2 °F 8.6 °F 33% 30.05 in 7.0 mi NNE 26.5 mph 38.0 mph N/A   Widespread Dust
10:51 PM 34.0 °F 21.8 °F 7.0 °F 32% 30.01 in 10.0 mi NNE 23.0 mph - N/A   Widespread Dust
11:51 PM 32.0 °F 18.9 °F 7.0 °F 35% 30.03 in 10.0 mi North 24.2 mph 29.9 mph N/A   Widespread Dust